Weather History for Sivas, Turkey

Change the Weather History Date:

Sunday, July 7, 2013

  Actual Average Record
Temperature  
Mean Temperature 68 °F -  
Max Temperature 86 °F 81 °F - ()
Min Temperature 51 °F 53 °F - ()
Cooling Degree Days 4    
Growing Degree Days 18 (Base 50)    
Moisture  
Dew Point 46 °F    
Average Humidity 58    
Maximum Humidity 93    
Minimum Humidity 11    
Precipitation  
Precipitation 0.00 in 0.01 in - ()
Sea Level Pressure  
Sea Level Pressure 30.10 in    
Wind  
Wind Speed 5 mph ()    
Max Wind Speed 18 mph    
Max Gust Speed -    
Visibility 7.4 miles    
Events      
T = Trace of Precipitation, MM = Missing Value Source: Averaged Metar Reports

Daily Weather History Graph

Daily Weather History Graph

Search for Another Location

Airport:

Trip Planner

Search our weather history database for the weather conditions in past years. The results will help you decide how hot, cold, wet, or windy it might be!

Date:

Astronomy

Jul. 07, 2013 Rise Set
Actual Time 5:11 AM EEST 8:03 PM EEST
Civil Twilight 4:38 AM EEST 8:35 PM EEST
Nautical Twilight 3:58 AM EEST 9:16 PM EEST
Astronomical Twilight 3:11 AM EEST 10:02 PM EEST
Moon 4:29 AM EEST (7/7) 7:12 PM EEST (7/7)
Length of Visible Light 15h 56m
Length of Day
14h 52m
Waning Crescent, 1% of the Moon is Illuminated
Jul 7
Waning Crescent
Jul 8
New
Jul 16
First Quarter
Jul 22
Full
Jul 29
Last Quarter

Hourly Weather History & Observations

Time (EEST) Temp. Dew Point Humidity Pressure Visibility Wind Dir Wind Speed Gust Speed Precip Events Conditions
12:50 AM 51.8 °F 48.2 °F 88% 30.06 in - North 9.2 mph - N/A   Clear
1:50 AM 48.2 °F 46.4 °F 93% 30.06 in - Calm Calm - N/A   Clear
2:50 AM 50.0 °F 46.4 °F 87% 30.06 in - North 3.5 mph - N/A   Clear
3:50 AM 48.2 °F 46.4 °F 93% 30.06 in - Calm Calm - N/A   Clear
4:50 AM 46.4 °F 44.6 °F 93% 30.06 in - Calm Calm - N/A   Clear
5:50 AM 42.8 °F 41.0 °F 93% 30.06 in - Calm Calm - N/A   Clear
6:50 AM 55.4 °F 48.2 °F 77% 30.09 in - North 1.2 mph - N/A   Clear
7:50 AM 60.8 °F 46.4 °F 59% 30.09 in - Variable 2.3 mph - N/A   Clear
8:50 AM 62.6 °F 46.4 °F 55% 30.09 in - WNW 4.6 mph - N/A   Clear
9:00 AM 67 °F 47 °F 38%  in 9 mi South 2.3 mph - -  
9:50 AM 64.4 °F 44.6 °F 49% 30.09 in - WNW 5.8 mph - N/A   Clear
10:50 AM 66.2 °F 48.2 °F 52% 30.09 in - NW 4.6 mph - N/A   Clear
11:50 AM 73.4 °F 48.2 °F 41% 30.09 in - WNW 8.1 mph - N/A   Clear
12:50 PM 73.4 °F 44.6 °F 36% 30.12 in - NNW 4.6 mph - N/A   Clear
1:50 PM 75.2 °F 44.6 °F 34% 30.12 in - North 9.2 mph - N/A   Clear
2:50 PM 77.0 °F 44.6 °F 32% 30.12 in 6.2 mi West 8.1 mph - N/A   Partly Cloudy
3:00 PM 84 °F 37 °F 11%  in 9 mi North 4.6 mph - -  
3:50 PM 78.8 °F 37.4 °F 23% 30.12 in 6.2 mi NW 17.3 mph - N/A   Partly Cloudy
4:50 PM 75.2 °F 44.6 °F 34% 30.09 in 6.2 mi North 15.0 mph - N/A   Partly Cloudy
5:50 PM 73.4 °F 46.4 °F 38% 30.09 in 6.2 mi NNW 18.4 mph - N/A   Partly Cloudy
6:50 PM 69.8 °F 46.4 °F 43% 30.12 in - NNW 18.4 mph - N/A   Clear
7:50 PM 66.2 °F 50.0 °F 56% 30.12 in - NNW 15.0 mph - N/A   Clear
8:50 PM 62.6 °F 50.0 °F 63% 30.15 in - North 12.7 mph - N/A   Clear
9:00 PM 70 °F 49 °F 37%  in 9 mi North 6.9 mph - -  
9:50 PM 59.0 °F 50.0 °F 72% 30.15 in - North 8.1 mph - N/A   Clear
10:50 PM 57.2 °F 50.0 °F 77% 30.15 in - NNW 10.4 mph - N/A   Clear
11:50 PM 55.4 °F 50.0 °F 82% 30.15 in - North 6.9 mph - N/A   Clear